Regional Weather Roundup
Issued by NWS

Home | Current Version | Previous Version | Graphics & Text | Print | Product List | Glossary On
Versions: 1 2 3 4 5 6 7 8 9 10 11 12 13 14 15 16 17 18 19 20 21 22 23 24 25 26 27 28 29 30 31 32 33 34 35 36 37 38 39 40 41 42 43 44 45 46 47 48 49 50
000
ASUS43 KOAX 090410
RWRNE

WEATHER ROUNDUP FOR NEBRASKA
NATIONAL WEATHER SERVICE OMAHA NE
1000 PM CST MON FEB 08 2016

NOTES: SATELLITE DATA IS BEING USED TO AUGMENT CLOUD COVER ABOVE
       12000 FEET.
       "FAIR" INDICATES FEW OR NO CLOUDS BELOW 12,000 FEET WITH NO
       SIGNIFICANT WEATHER AND/OR OBSTRUCTIONS TO VISIBILITY.

  * THESE STATIONS DO NOT REPORT WEATHER SUCH AS RAIN...SNOW OR FOG.

NEZ001>004-019>022-054>056-090500-
NEBRASKA PANHANDLE

CITY           SKY/WX    TMP DP  RH WIND       PRES   REMARKS
SCOTTSBLUFF    CLOUDY    35  27  72 NW12      30.27F WCI  27
ALLIANCE       CLOUDY    29  24  82 NW7       30.22F WCI  22
CHADRON        CLOUDY    32  25  75 W8        30.24F WCI  25
KIMBALL        CLEAR     33  27  79 W15       30.27F WCI  23
SIDNEY         CLOUDY    33  27  78 NW6       30.25F WCI  28
$$

NEZ057>060-069>072-079>082-090500-
SOUTHWEST NEBRASKA

CITY           SKY/WX    TMP DP  RH WIND       PRES   REMARKS
NORTH PLATTE   MOCLDY    27  18  69 NW8       30.21F WCI  19
IMPERIAL       CLEAR     27  19  72 W9        30.25F WCI  18
LEXINGTON      CLEAR     25  17  71 NW9       30.20S WCI  15
MCCOOK         CLOUDY    32  22  66 W8        30.24F WCI  25
OGALLALA       CLOUDY    26  19  75 W9        30.23F WCI  17
$$

NEZ005>010-023>029-035>040-094-090500-
NORTH CENTRAL NEBRASKA

CITY           SKY/WX    TMP DP  RH WIND       PRES   REMARKS
VALENTINE      CLOUDY    31  17  56 NW13      30.20S WCI  21
AINSWORTH      CLOUDY    32  15  49 NW16G23   30.17S WCI  21
BROKEN BOW     CLEAR     28  15  58 NW17      30.17S WCI  16
O`NEILL        CLOUDY    30  20  67 NW13      30.16S WCI  20
ORD            MOCLDY    28  17  63 NW10      30.16R WCI  19
THEDFORD       CLOUDY    33  19  57 NW8       30.20S WCI  26
$$

NEZ041-046>049-061>064-073>077-083>087-090500-
SOUTH CENTRAL NEBRASKA

CITY           SKY/WX    TMP DP  RH WIND       PRES   REMARKS
GRAND ISLAND   CLEAR     22  14  71 W6        30.17S WCI  14
AURORA         CLEAR     26  17  70 NW13      30.15S WCI  14
HASTINGS       CLEAR     24  14  65 W9        30.16F WCI  14
HEBRON         CLOUDY    30  21  69 W7        30.16S WCI  23
HOLDREGE       CLEAR     25  14  61 W9        30.19F WCI  16
YORK           CLEAR     27  19  74 NW13      30.14S WCI  16
$$

NEZ011>018-030>034-042>045-090500-
NORTHEAST NEBRASKA

CITY           SKY/WX    TMP DP  RH WIND       PRES   REMARKS
NORFOLK        CLEAR     29  20  69 N14       30.10S WCI  18
ALBION         CLEAR     27  18  69 NW15      30.13S WCI  15
BLAIR          CLOUDY    26  18  71 NW8       30.07S WCI  18
COLUMBUS *     CLEAR     28  14  54 NW14      30.12S WCI  17
FREMONT        PTCLDY    28  17  65 N13       30.11R WCI  17
TEKAMAH        MOCLDY    29  16  58 NW17      30.10S WCI  17
WAYNE          CLEAR     25  16  67 N16       30.12R WCI  13
$$

NEZ050>053-065>068-078-088>093-090500-
SOUTHEAST NEBRASKA

CITY           SKY/WX    TMP DP  RH WIND       PRES   REMARKS
LINCOLN        PTCLDY    32  20  61 NW15G26   30.12F WCI  22
OMAHA EPPLEY   CLOUDY    25  19  78 NW10      30.09F WCI  15
BEATRICE       CLEAR     31  22  70 NW14      30.12F WCI  21
FALLS CITY     CLOUDY    26  20  77 NW8       30.08F WCI  18
NEBRASKA CITY  CLOUDY    28  20  71 NW14      30.08F WCI  17
PLATTSMOUTH    CLOUDY    28  19  67 NW16G23   30.07F WCI  16
$$

NEZ044-045-051>053-067-090500-
OMAHA AREA

CITY           SKY/WX    TMP DP  RH WIND       PRES   REMARKS
OMAHA EPPLEY   CLOUDY    25  19  78 NW10      30.09F WCI  15
BLAIR          CLOUDY    26  18  71 NW8       30.07S WCI  18
FREMONT        PTCLDY    28  17  65 N13       30.11R WCI  17
MILLARD        PTCLDY    30  18  60 NW10G18   30.09S WCI  21
OFFUTT AFB     CLOUDY    28  17  65 NW12      30.08F WCI  18
PLATTSMOUTH    CLOUDY    28  19  67 NW16G23   30.07F WCI  16
WAHOO          FAIR      27  20  76 N7        30.11R WCI  19
$$



USA.gov is the U.S. government's official web portal to all federal, state and local government web resources and services.